Time,TemperatureF,DewpointF,PressureIn,WindDirection,WindDirectionDegrees,WindSpeedMPH,WindSpeedGustMPH,Humidity,HourlyPrecipIn,Conditions,Clouds,dailyrainin,SolarRadiationWatts/m^2,SoftwareType,DateUTC
2013-01-10 00:00:00,43.2,26.3,29.98,West,265,18.0,20.0,51,0.00,,OVC021,0.00,0.00,VWS V14.01,2013-01-10 05:00:00,
2013-01-10 00:05:00,43.3,26.4,29.96,WNW,285,11.0,18.0,51,0.00,,OVC021,0.00,0.00,VWS V14.01,2013-01-10 05:05:00,
2013-01-10 00:10:00,43.2,26.3,29.96,WNW,290,9.0,17.0,51,0.00,,OVC021,0.00,0.00,VWS V14.01,2013-01-10 05:10:00,
2013-01-10 00:15:00,43.2,26.3,29.96,West,262,9.0,21.0,51,0.00,,OVC021,0.00,0.00,VWS V14.01,2013-01-10 05:15:00,
2013-01-10 00:20:00,43.1,26.2,29.96,WSW,254,9.0,20.0,51,0.00,,OVC021,0.00,0.00,VWS V14.01,2013-01-10 05:20:00,
2013-01-10 00:25:00,43.1,26.2,29.96,NW,313,10.0,20.0,51,0.00,,OVC021,0.00,0.00,VWS V14.01,2013-01-10 05:25:00,
2013-01-10 00:30:00,43.0,26.1,29.96,WNW,282,10.0,20.0,51,0.00,,OVC021,0.00,0.00,VWS V14.01,2013-01-10 05:30:00,
2013-01-10 00:35:00,43.0,26.1,29.97,West,280,7.0,19.0,51,0.00,,OVC021,0.00,0.00,VWS V14.01,2013-01-10 05:35:00,
2013-01-10 00:40:00,42.9,26.0,29.98,West,263,14.0,17.0,51,0.00,,OVC021,0.00,0.00,VWS V14.01,2013-01-10 05:40:00,
2013-01-10 00:45:00,42.8,26.4,29.96,West,261,9.0,16.0,52,0.00,,OVC021,0.00,0.00,VWS V14.01,2013-01-10 05:45:00,
2013-01-10 00:50:00,42.7,26.3,29.97,WNW,291,7.0,16.0,52,0.00,,OVC021,0.00,0.00,VWS V14.01,2013-01-10 05:50:00,
2013-01-10 00:55:00,42.6,26.2,29.97,NW,311,10.0,19.0,52,0.00,,OVC021,0.00,0.00,VWS V14.01,2013-01-10 05:55:00,
2013-01-10 01:00:00,42.6,26.2,29.97,WNW,283,7.0,12.0,52,0.00,,OVC021,0.00,0.00,VWS V14.01,2013-01-10 06:00:00,
2013-01-10 01:05:00,42.5,26.6,29.98,WSW,255,10.0,18.0,53,0.00,,OVC021,0.00,0.00,VWS V14.01,2013-01-10 06:05:00,
2013-01-10 01:10:00,42.6,26.2,29.97,West,265,12.0,19.0,52,0.00,,OVC021,0.00,0.00,VWS V14.01,2013-01-10 06:10:00,
2013-01-10 01:15:00,42.8,26.4,29.98,NW,312,10.0,18.0,52,0.00,,OVC021,0.00,0.00,VWS V14.01,2013-01-10 06:15:00,
2013-01-10 01:20:00,42.9,26.5,29.98,West,261,10.0,23.0,52,0.00,,OVC021,0.00,0.00,VWS V14.01,2013-01-10 06:20:00,
2013-01-10 01:25:00,42.9,27.0,29.98,WNW,287,10.0,21.0,53,0.00,,OVC021,0.00,0.00,VWS V14.01,2013-01-10 06:25:00,
2013-01-10 01:30:00,42.8,26.9,29.98,West,267,16.0,18.0,53,0.00,,OVC021,0.00,0.00,VWS V14.01,2013-01-10 06:30:00,
2013-01-10 01:35:00,42.8,26.9,29.98,WNW,283,5.0,20.0,53,0.00,,OVC021,0.00,0.00,VWS V14.01,2013-01-10 06:35:00,
2013-01-10 01:40:00,42.8,26.9,29.98,West,271,13.0,19.0,53,0.00,,OVC021,0.00,0.00,VWS V14.01,2013-01-10 06:40:00,
2013-01-10 01:45:00,43.1,26.7,29.98,WSW,250,11.0,25.0,52,0.00,,OVC021,0.00,0.00,VWS V14.01,2013-01-10 06:45:00,
2013-01-10 01:50:00,43.2,27.2,29.99,WNW,288,18.0,24.0,53,0.00,,OVC021,0.00,0.00,VWS V14.01,2013-01-10 06:50:00,
2013-01-10 01:55:00,43.2,26.8,30.00,WSW,254,13.0,20.0,52,0.00,,OVC021,0.00,0.00,VWS V14.01,2013-01-10 06:55:00,
2013-01-10 02:00:00,43.1,27.1,29.99,WNW,284,14.0,22.0,53,0.00,,OVC021,0.00,0.00,VWS V14.01,2013-01-10 07:00:00,
2013-01-10 02:05:00,43.0,27.0,29.99,West,264,24.0,24.0,53,0.00,,OVC021,0.00,0.00,VWS V14.01,2013-01-10 07:05:00,
2013-01-10 02:10:00,42.8,27.3,29.99,West,266,13.0,24.0,54,0.00,,OVC021,0.00,0.00,VWS V14.01,2013-01-10 07:10:00,
2013-01-10 02:15:00,42.7,27.2,30.00,West,267,13.0,21.0,54,0.00,,OVC021,0.00,0.00,VWS V14.01,2013-01-10 07:15:00,
2013-01-10 02:20:00,42.7,27.2,30.02,NW,306,13.0,32.0,54,0.00,,OVC021,0.00,0.00,VWS V14.01,2013-01-10 07:20:00,
2013-01-10 02:25:00,42.4,27.0,30.00,WNW,297,16.0,30.0,54,0.00,,OVC021,0.00,0.00,VWS V14.01,2013-01-10 07:25:00,
2013-01-10 02:30:00,42.4,27.0,30.02,NW,324,12.0,35.0,54,0.00,,OVC021,0.00,0.00,VWS V14.01,2013-01-10 07:30:00,
2013-01-10 02:35:00,42.0,27.0,30.02,NW,304,6.0,20.0,55,0.00,,OVC021,0.00,0.00,VWS V14.01,2013-01-10 07:35:00,
2013-01-10 02:40:00,42.0,27.0,30.03,WNW,294,10.0,27.0,55,0.00,,OVC021,0.00,0.00,VWS V14.01,2013-01-10 07:40:00,
2013-01-10 02:45:00,41.9,26.5,30.03,West,269,17.0,26.0,54,0.00,,OVC021,0.00,0.00,VWS V14.01,2013-01-10 07:45:00,
2013-01-10 02:50:00,41.7,26.7,30.03,NW,306,8.0,30.0,55,0.00,,OVC021,0.00,0.00,VWS V14.01,2013-01-10 07:50:00,
2013-01-10 02:55:00,41.6,26.6,30.04,WNW,293,16.0,31.0,55,0.00,,OVC021,0.00,0.00,VWS V14.01,2013-01-10 07:55:00,
2013-01-10 03:00:00,41.6,26.6,30.04,NW,304,17.0,26.0,55,0.00,,OVC021,0.00,0.00,VWS V14.01,2013-01-10 08:00:00,
2013-01-10 03:05:00,41.4,26.9,30.03,West,274,10.0,23.0,56,0.00,,OVC021,0.00,0.00,VWS V14.01,2013-01-10 08:05:00,
2013-01-10 03:10:00,41.1,26.6,30.05,NW,317,7.0,18.0,56,0.00,,OVC021,0.00,0.00,VWS V14.01,2013-01-10 08:10:00,
2013-01-10 03:15:00,41.1,26.6,30.04,WNW,290,10.0,27.0,56,0.00,,OVC021,0.00,0.00,VWS V14.01,2013-01-10 08:15:00,
2013-01-10 03:20:00,40.9,26.9,30.04,WNW,294,16.0,24.0,57,0.00,,OVC021,0.00,0.00,VWS V14.01,2013-01-10 08:20:00,
2013-01-10 03:25:00,40.8,26.8,30.05,West,275,10.0,18.0,57,0.00,,OVC021,0.00,0.00,VWS V14.01,2013-01-10 08:25:00,
2013-01-10 03:30:00,40.7,27.1,30.05,WNW,296,11.0,23.0,58,0.00,,OVC021,0.00,0.00,VWS V14.01,2013-01-10 08:30:00,
2013-01-10 03:35:00,40.7,27.1,30.05,NW,325,5.0,20.0,58,0.00,,OVC021,0.00,0.00,VWS V14.01,2013-01-10 08:35:00,
2013-01-10 03:40:00,40.5,26.9,30.06,NNW,336,14.0,18.0,58,0.00,,OVC021,0.00,0.00,VWS V14.01,2013-01-10 08:40:00,
2013-01-10 03:45:00,40.6,27.0,30.06,NW,319,4.0,18.0,58,0.00,,OVC021,0.00,0.00,VWS V14.01,2013-01-10 08:45:00,
2013-01-10 03:50:00,40.7,26.7,30.07,WNW,300,17.0,24.0,57,0.00,,OVC021,0.00,0.00,VWS V14.01,2013-01-10 08:50:00,
2013-01-10 03:55:00,40.7,26.7,30.07,NW,306,11.0,22.0,57,0.00,,OVC021,0.00,0.00,VWS V14.01,2013-01-10 08:55:00,
2013-01-10 04:00:00,40.8,26.8,30.07,WNW,292,9.0,19.0,57,0.00,,OVC021,0.00,0.00,VWS V14.01,2013-01-10 09:00:00,
2013-01-10 04:05:00,40.7,26.2,30.07,NNW,327,16.0,21.0,56,0.00,,OVC021,0.00,0.00,VWS V14.01,2013-01-10 09:05:00,
2013-01-10 04:10:00,40.7,26.2,30.07,West,265,6.0,26.0,56,0.00,,OVC021,0.00,0.00,VWS V14.01,2013-01-10 09:10:00,
2013-01-10 04:15:00,40.8,25.9,30.08,West,281,14.0,26.0,55,0.00,,OVC021,0.00,0.00,VWS V14.01,2013-01-10 09:15:00,
2013-01-10 04:20:00,40.9,26.0,30.09,NW,322,15.0,19.0,55,0.00,,OVC021,0.00,0.00,VWS V14.01,2013-01-10 09:20:00,
2013-01-10 04:25:00,41.0,25.6,30.10,NNW,331,10.0,28.0,54,0.00,,OVC021,0.00,0.00,VWS V14.01,2013-01-10 09:25:00,
2013-01-10 04:30:00,41.0,25.2,30.09,NW,321,19.0,21.0,53,0.00,,OVC021,0.00,0.00,VWS V14.01,2013-01-10 09:30:00,
2013-01-10 04:35:00,41.1,25.3,30.09,NW,308,18.0,27.0,53,0.00,,OVC021,0.00,0.00,VWS V14.01,2013-01-10 09:35:00,
2013-01-10 04:40:00,40.9,24.6,30.10,NNW,331,10.0,19.0,52,0.00,,OVC021,0.00,0.00,VWS V14.01,2013-01-10 09:40:00,
2013-01-10 04:45:00,40.9,24.6,30.10,North,350,8.0,20.0,52,0.00,,OVC021,0.00,0.00,VWS V14.01,2013-01-10 09:45:00,
2013-01-10 04:50:00,40.8,25.0,30.10,NW,313,9.0,19.0,53,0.00,,OVC021,0.00,0.00,VWS V14.01,2013-01-10 09:50:00,
2013-01-10 04:55:00,40.8,24.5,30.11,WNW,296,5.0,16.0,52,0.00,,OVC021,0.00,0.00,VWS V14.01,2013-01-10 09:55:00,
2013-01-10 05:00:00,40.7,24.5,30.12,NNW,327,8.0,15.0,52,0.00,,OVC021,0.00,0.00,VWS V14.01,2013-01-10 10:00:00,
2013-01-10 05:05:00,40.8,24.5,30.11,NW,320,4.0,17.0,52,0.00,,OVC021,0.00,0.00,VWS V14.01,2013-01-10 10:05:00,
2013-01-10 05:10:00,40.7,24.5,30.11,NW,318,7.0,18.0,52,0.00,,OVC021,0.00,0.00,VWS V14.01,2013-01-10 10:10:00,
2013-01-10 05:15:00,40.6,24.4,30.12,WNW,297,6.0,16.0,52,0.00,,OVC021,0.00,0.00,VWS V14.01,2013-01-10 10:15:00,
2013-01-10 05:20:00,40.3,24.1,30.12,North,355,9.0,11.0,52,0.00,,OVC021,0.00,0.00,VWS V14.01,2013-01-10 10:20:00,
2013-01-10 05:25:00,40.2,24.5,30.13,NW,306,4.0,13.0,53,0.00,,OVC021,0.00,0.00,VWS V14.01,2013-01-10 10:25:00,
2013-01-10 05:30:00,40.2,24.5,30.13,NNW,340,5.0,15.0,53,0.00,,OVC021,0.00,0.00,VWS V14.01,2013-01-10 10:30:00,
2013-01-10 05:35:00,40.0,24.3,30.13,West,281,7.0,15.0,53,0.00,,OVC021,0.00,0.00,VWS V14.01,2013-01-10 10:35:00,
2013-01-10 05:40:00,40.0,24.3,30.14,WNW,292,7.0,16.0,53,0.00,,OVC021,0.00,0.00,VWS V14.01,2013-01-10 10:40:00,
2013-01-10 05:45:00,39.9,24.2,30.14,NNW,341,8.0,13.0,53,0.00,,OVC021,0.00,0.00,VWS V14.01,2013-01-10 10:45:00,
2013-01-10 05:50:00,39.9,24.2,30.15,NW,321,4.0,15.0,53,0.00,,OVC021,0.00,0.00,VWS V14.01,2013-01-10 10:50:00,
2013-01-10 05:55:00,39.8,24.1,30.15,NNW,331,6.0,14.0,53,0.00,,OVC021,0.00,0.00,VWS V14.01,2013-01-10 10:55:00,
2013-01-10 06:00:00,39.5,24.2,30.16,NW,318,12.0,16.0,54,0.00,,OVC021,0.00,0.00,VWS V14.01,2013-01-10 11:00:00,
2013-01-10 06:03:00,39.4,24.1,30.16,NNW,344,6.0,12.0,54,0.00,,OVC021,0.00,0.00,VWS V14.01,2013-01-10 11:03:00,
2013-01-10 06:04:00,39.4,24.1,30.16,NW,317,7.0,14.0,54,0.00,,OVC021,0.00,0.00,VWS V14.01,2013-01-10 11:04:00,
2013-01-10 06:05:00,39.4,24.1,30.15,WNW,296,6.0,14.0,54,0.00,,OVC021,0.00,0.00,VWS V14.01,2013-01-10 11:05:00,
2013-01-10 06:10:00,39.4,24.6,30.16,WNW,294,9.0,17.0,55,0.00,,OVC021,0.00,0.00,VWS V14.01,2013-01-10 11:10:00,
2013-01-10 06:15:00,39.3,24.1,30.16,West,280,5.0,17.0,54,0.00,,OVC021,0.00,0.00,VWS V14.01,2013-01-10 11:15:00,
2013-01-10 06:20:00,39.3,24.1,30.18,West,279,4.0,18.0,54,0.00,,OVC021,0.00,0.00,VWS V14.01,2013-01-10 11:20:00,
2013-01-10 06:25:00,39.3,24.1,30.18,NNW,329,11.0,18.0,54,0.00,,OVC021,0.00,0.00,VWS V14.01,2013-01-10 11:25:00,
2013-01-10 06:26:00,39.3,24.1,30.17,NNW,329,14.0,20.0,54,0.00,,OVC021,0.00,0.00,VWS V14.01,2013-01-10 11:26:00,
2013-01-10 06:30:00,39.3,24.1,30.18,WNW,288,12.0,20.0,54,0.00,,OVC021,0.00,0.00,VWS V14.01,2013-01-10 11:30:00,
2013-01-10 06:31:00,39.4,23.7,30.17,NW,305,9.0,21.0,53,0.00,,OVC021,0.00,0.00,VWS V14.01,2013-01-10 11:31:00,
2013-01-10 06:35:00,39.4,23.7,30.17,NW,312,7.0,21.0,53,0.00,,OVC021,0.00,0.00,VWS V14.01,2013-01-10 11:35:00,
2013-01-10 06:36:00,39.4,23.7,30.18,WNW,298,11.0,27.0,53,0.00,,OVC021,0.00,0.00,VWS V14.01,2013-01-10 11:36:00,
2013-01-10 06:40:00,39.3,23.6,30.18,NW,304,8.0,27.0,53,0.00,,OVC021,0.00,0.00,VWS V14.01,2013-01-10 11:40:00,
2013-01-10 06:41:00,39.3,24.1,30.17,WNW,296,9.0,18.0,54,0.00,,OVC021,0.00,0.00,VWS V14.01,2013-01-10 11:41:00,
2013-01-10 06:45:00,39.3,24.1,30.18,NNW,333,12.0,20.0,54,0.00,,OVC021,0.00,0.00,VWS V14.01,2013-01-10 11:45:00,
2013-01-10 06:46:00,39.2,24.0,30.19,NW,321,13.0,18.0,54,0.00,,OVC021,0.00,0.00,VWS V14.01,2013-01-10 11:46:00,
2013-01-10 06:50:00,39.2,24.0,30.18,NW,311,12.0,19.0,54,0.00,,OVC021,0.00,0.00,VWS V14.01,2013-01-10 11:50:00,
2013-01-10 06:51:00,39.0,23.8,30.18,NW,324,9.0,17.0,54,0.00,,OVC021,0.00,0.00,VWS V14.01,2013-01-10 11:51:00,
2013-01-10 06:55:00,39.0,23.8,30.18,NW,318,7.0,17.0,54,0.00,,OVC021,0.00,0.00,VWS V14.01,2013-01-10 11:55:00,
2013-01-10 06:56:00,38.8,23.6,30.18,NW,326,7.0,14.0,54,0.00,,OVC021,0.00,0.00,VWS V14.01,2013-01-10 11:56:00,
2013-01-10 07:00:00,38.7,23.5,30.17,NW,319,8.0,16.0,54,0.00,,OVC021,0.00,0.00,VWS V14.01,2013-01-10 12:00:00,
2013-01-10 07:01:00,38.8,23.6,30.18,NNW,328,10.0,19.0,54,0.00,,OVC021,0.00,0.00,VWS V14.01,2013-01-10 12:01:00,
2013-01-10 07:05:00,38.8,23.6,30.18,WNW,293,12.0,19.0,54,0.00,,OVC021,0.00,0.00,VWS V14.01,2013-01-10 12:05:00,
2013-01-10 07:06:00,38.8,23.6,30.19,WNW,301,10.0,20.0,54,0.00,,OVC021,0.00,0.00,VWS V14.01,2013-01-10 12:06:00,
2013-01-10 07:10:00,38.8,23.6,30.19,WNW,302,9.0,20.0,54,0.00,,OVC021,0.00,0.00,VWS V14.01,2013-01-10 12:10:00,
2013-01-10 07:12:00,38.6,23.4,30.19,NNW,331,11.0,16.0,54,0.00,,OVC021,0.00,0.00,VWS V14.01,2013-01-10 12:12:00,
2013-01-10 07:15:00,38.6,23.4,30.18,NW,309,6.0,16.0,54,0.00,,OVC021,0.00,0.00,VWS V14.01,2013-01-10 12:15:00,
2013-01-10 07:17:00,38.4,23.2,30.19,NW,310,7.0,13.0,54,0.00,,OVC021,0.00,5.00,VWS V14.01,2013-01-10 12:17:00,
2013-01-10 07:20:00,38.4,23.2,30.19,NW,318,7.0,13.0,54,0.00,,OVC021,0.00,7.00,VWS V14.01,2013-01-10 12:20:00,
2013-01-10 07:22:00,38.4,23.2,30.19,WNW,302,10.0,16.0,54,0.00,,OVC021,0.00,7.00,VWS V14.01,2013-01-10 12:22:00,
2013-01-10 07:25:00,38.4,23.2,30.20,NW,306,8.0,16.0,54,0.00,,OVC021,0.00,9.00,VWS V14.01,2013-01-10 12:25:00,
2013-01-10 07:27:00,38.3,23.1,30.20,WNW,289,11.0,14.0,54,0.00,,OVC021,0.00,11.00,VWS V14.01,2013-01-10 12:27:00,
2013-01-10 07:30:00,38.3,23.1,30.19,NW,308,10.0,19.0,54,0.00,,OVC021,0.00,11.00,VWS V14.01,2013-01-10 12:30:00,
2013-01-10 07:32:00,38.5,23.3,30.20,NW,306,11.0,20.0,54,0.00,,OVC021,0.00,14.00,VWS V14.01,2013-01-10 12:32:00,
2013-01-10 07:35:00,38.6,23.4,30.20,NW,315,7.0,20.0,54,0.00,,OVC021,0.00,18.00,VWS V14.01,2013-01-10 12:35:00,
2013-01-10 07:37:00,38.6,23.4,30.20,NW,305,14.0,19.0,54,0.00,,OVC021,0.00,26.00,VWS V14.01,2013-01-10 12:37:00,
2013-01-10 07:40:00,38.6,23.4,30.20,WNW,291,12.0,19.0,54,0.00,,OVC021,0.00,28.00,VWS V14.01,2013-01-10 12:40:00,
2013-01-10 07:42:00,38.7,23.5,30.21,WNW,288,9.0,17.0,54,0.00,,OVC021,0.00,37.00,VWS V14.01,2013-01-10 12:42:00,
2013-01-10 07:45:00,38.7,23.5,30.21,NW,326,6.0,17.0,54,0.00,,OVC021,0.00,37.00,VWS V14.01,2013-01-10 12:45:00,
2013-01-10 07:47:00,38.6,23.4,30.21,WNW,296,6.0,13.0,54,0.00,,OVC021,0.00,47.00,VWS V14.01,2013-01-10 12:47:00,
2013-01-10 07:50:00,38.6,23.4,30.21,WNW,302,12.0,13.0,54,0.00,,OVC021,0.00,49.00,VWS V14.01,2013-01-10 12:50:00,
2013-01-10 07:52:00,38.7,23.5,30.22,WNW,291,9.0,16.0,54,0.00,,OVC021,0.00,58.00,VWS V14.01,2013-01-10 12:52:00,
2013-01-10 07:55:00,38.7,23.5,30.22,NW,309,7.0,16.0,54,0.00,,OVC021,0.00,62.00,VWS V14.01,2013-01-10 12:55:00,
2013-01-10 07:57:00,38.7,23.5,30.22,NW,317,9.0,10.0,54,0.00,,OVC021,0.00,72.00,VWS V14.01,2013-01-10 12:57:00,
2013-01-10 08:00:00,38.8,23.6,30.22,NW,320,8.0,10.0,54,0.00,,OVC021,0.00,74.00,VWS V14.01,2013-01-10 13:00:00,
2013-01-10 08:02:00,38.7,23.5,30.22,WNW,292,7.0,14.0,54,0.00,,OVC021,0.00,84.00,VWS V14.01,2013-01-10 13:02:00,
2013-01-10 08:05:00,38.8,23.6,30.22,WNW,293,11.0,14.0,54,0.00,,OVC021,0.00,88.00,VWS V14.01,2013-01-10 13:05:00,
2013-01-10 08:07:00,38.8,23.6,30.22,West,273,7.0,16.0,54,0.00,,OVC021,0.00,100.00,VWS V14.01,2013-01-10 13:07:00,
2013-01-10 08:10:00,38.8,23.6,30.22,West,281,9.0,16.0,54,0.00,,OVC021,0.00,102.00,VWS V14.01,2013-01-10 13:10:00,
2013-01-10 08:12:00,38.9,23.2,30.22,NNW,333,13.0,17.0,53,0.00,,OVC021,0.00,113.00,VWS V14.01,2013-01-10 13:12:00,
2013-01-10 08:15:00,38.9,23.2,30.22,WNW,282,9.0,17.0,53,0.00,,OVC021,0.00,114.00,VWS V14.01,2013-01-10 13:15:00,
2013-01-10 08:17:00,39.0,23.3,30.22,WNW,286,14.0,23.0,53,0.00,,OVC021,0.00,127.00,VWS V14.01,2013-01-10 13:17:00,
2013-01-10 08:20:00,39.0,23.3,30.22,WNW,291,9.0,23.0,53,0.00,,OVC021,0.00,130.00,VWS V14.01,2013-01-10 13:20:00,
2013-01-10 08:23:00,39.1,23.4,30.22,NW,304,17.0,24.0,53,0.00,,OVC021,0.00,142.00,VWS V14.01,2013-01-10 13:23:00,
2013-01-10 08:25:00,39.2,23.5,30.22,North,355,8.0,24.0,53,0.00,,OVC021,0.00,146.00,VWS V14.01,2013-01-10 13:25:00,
2013-01-10 08:28:00,39.2,23.1,30.23,WNW,303,11.0,20.0,52,0.00,,OVC021,0.00,158.00,VWS V14.01,2013-01-10 13:28:00,
2013-01-10 08:30:00,39.2,23.1,30.23,NW,315,11.0,20.0,52,0.00,,OVC021,0.00,160.00,VWS V14.01,2013-01-10 13:30:00,
2013-01-10 08:33:00,39.3,23.2,30.23,NW,319,13.0,23.0,52,0.00,,OVC021,0.00,172.00,VWS V14.01,2013-01-10 13:33:00,
2013-01-10 08:35:00,39.3,23.2,30.23,WNW,302,8.0,23.0,52,0.00,,OVC021,0.00,176.00,VWS V14.01,2013-01-10 13:35:00,
2013-01-10 08:38:00,39.4,23.2,30.23,WNW,300,9.0,16.0,52,0.00,,OVC021,0.00,188.00,VWS V14.01,2013-01-10 13:38:00,
2013-01-10 08:40:00,39.4,23.2,30.23,NW,320,10.0,19.0,52,0.00,,OVC021,0.00,192.00,VWS V14.01,2013-01-10 13:40:00,
2013-01-10 08:43:00,39.5,23.4,30.24,NW,323,6.0,17.0,52,0.00,,OVC021,0.00,202.00,VWS V14.01,2013-01-10 13:43:00,
2013-01-10 08:45:00,39.6,23.4,30.24,West,264,6.0,17.0,52,0.00,,OVC021,0.00,204.00,VWS V14.01,2013-01-10 13:45:00,
2013-01-10 08:48:00,39.7,23.1,30.24,NW,305,8.0,19.0,51,0.00,,OVC021,0.00,218.00,VWS V14.01,2013-01-10 13:48:00,
2013-01-10 08:50:00,39.7,23.1,30.24,WNW,286,9.0,19.0,51,0.00,,OVC021,0.00,218.00,VWS V14.01,2013-01-10 13:50:00,
2013-01-10 08:53:00,39.7,23.1,30.24,NW,317,10.0,19.0,51,0.00,,OVC021,0.00,230.00,VWS V14.01,2013-01-10 13:53:00,
2013-01-10 08:55:00,39.7,23.1,30.24,NW,319,10.0,19.0,51,0.00,,OVC021,0.00,230.00,VWS V14.01,2013-01-10 13:55:00,
2013-01-10 08:58:00,39.9,23.3,30.24,NW,322,5.0,15.0,51,0.00,,OVC021,0.00,244.00,VWS V14.01,2013-01-10 13:58:00,
2013-01-10 09:00:00,39.9,23.3,30.24,NW,323,7.0,15.0,51,0.00,,OVC021,0.00,244.00,VWS V14.01,2013-01-10 14:00:00,
2013-01-10 09:03:00,40.1,23.4,30.24,WNW,286,7.0,9.0,51,0.00,,OVC021,0.00,255.00,VWS V14.01,2013-01-10 14:03:00,
2013-01-10 09:05:00,40.1,23.4,30.24,NW,309,9.0,16.0,51,0.00,,OVC021,0.00,255.00,VWS V14.01,2013-01-10 14:05:00,
2013-01-10 09:08:00,40.1,23.0,30.25,NNW,328,9.0,9.0,50,0.00,,OVC021,0.00,265.00,VWS V14.01,2013-01-10 14:08:00,
2013-01-10 09:10:00,40.1,23.0,30.25,WNW,295,8.0,22.0,50,0.00,,OVC021,0.00,265.00,VWS V14.01,2013-01-10 14:10:00,
2013-01-10 09:13:00,40.2,23.1,30.25,NNW,334,13.0,16.0,50,0.00,,OVC021,0.00,278.00,VWS V14.01,2013-01-10 14:13:00,
2013-01-10 09:15:00,40.2,23.1,30.25,NW,304,16.0,20.0,50,0.00,,OVC021,0.00,278.00,VWS V14.01,2013-01-10 14:15:00,
2013-01-10 09:18:00,40.4,23.2,30.25,West,263,8.0,9.0,50,0.00,,OVC021,0.00,287.00,VWS V14.01,2013-01-10 14:18:00,
2013-01-10 09:20:00,40.4,23.2,30.25,West,271,9.0,16.0,50,0.00,,OVC021,0.00,287.00,VWS V14.01,2013-01-10 14:20:00,
2013-01-10 09:23:00,40.6,23.4,30.26,West,274,7.0,10.0,50,0.00,,OVC021,0.00,297.00,VWS V14.01,2013-01-10 14:23:00,
2013-01-10 09:25:00,40.5,23.3,30.26,WNW,290,8.0,17.0,50,0.00,,OVC021,0.00,295.00,VWS V14.01,2013-01-10 14:25:00,
2013-01-10 09:28:00,40.6,22.5,30.26,NW,304,17.0,17.0,48,0.00,,OVC021,0.00,308.00,VWS V14.01,2013-01-10 14:28:00,
2013-01-10 09:30:00,40.6,22.5,30.25,NW,308,7.0,26.0,48,0.00,,OVC021,0.00,308.00,VWS V14.01,2013-01-10 14:30:00,
2013-01-10 09:34:00,40.6,22.5,30.25,North,355,6.0,14.0,48,0.00,,OVC021,0.00,316.00,VWS V14.01,2013-01-10 14:34:00,
2013-01-10 09:35:00,40.6,23.0,30.25,NW,312,10.0,20.0,49,0.00,,OVC021,0.00,316.00,VWS V14.01,2013-01-10 14:35:00,
2013-01-10 09:39:00,40.7,22.1,30.26,WNW,299,17.0,21.0,47,0.00,,OVC021,0.00,325.00,VWS V14.01,2013-01-10 14:39:00,
2013-01-10 09:40:00,40.7,22.5,30.26,NW,310,11.0,23.0,48,0.00,,OVC021,0.00,325.00,VWS V14.01,2013-01-10 14:40:00,
2013-01-10 09:44:00,40.7,23.0,30.26,NNW,333,5.0,11.0,49,0.00,,OVC021,0.00,332.00,VWS V14.01,2013-01-10 14:44:00,
2013-01-10 09:45:00,40.7,22.5,30.26,West,279,8.0,21.0,48,0.00,,OVC021,0.00,332.00,VWS V14.01,2013-01-10 14:45:00,
2013-01-10 09:49:00,40.9,22.7,30.26,West,263,13.0,16.0,48,0.00,,OVC021,0.00,341.00,VWS V14.01,2013-01-10 14:49:00,
2013-01-10 09:50:00,40.9,22.7,30.26,NW,314,13.0,18.0,48,0.00,,OVC021,0.00,341.00,VWS V14.01,2013-01-10 14:50:00,
2013-01-10 09:54:00,41.0,22.3,30.26,NW,317,19.0,19.0,47,0.00,,OVC021,0.00,350.00,VWS V14.01,2013-01-10 14:54:00,
2013-01-10 09:55:00,41.0,22.8,30.26,NW,317,12.0,23.0,48,0.00,,OVC021,0.00,348.00,VWS V14.01,2013-01-10 14:55:00,
2013-01-10 09:59:00,41.0,22.3,30.26,NNW,328,17.0,24.0,47,0.00,,OVC021,0.00,357.00,VWS V14.01,2013-01-10 14:59:00,
2013-01-10 10:00:00,41.0,22.3,30.26,NW,309,19.0,27.0,47,0.00,,OVC021,0.00,355.00,VWS V14.01,2013-01-10 15:00:00,
2013-01-10 10:04:00,41.0,22.3,30.27,NW,326,21.0,21.0,47,0.00,,OVC021,0.00,366.00,VWS V14.01,2013-01-10 15:04:00,
2013-01-10 10:05:00,40.9,22.7,30.26,NW,315,13.0,30.0,48,0.00,,OVC021,0.00,364.00,VWS V14.01,2013-01-10 15:05:00,
2013-01-10 10:09:00,41.2,23.0,30.27,NNW,329,8.0,9.0,48,0.00,,OVC021,0.00,369.00,VWS V14.01,2013-01-10 15:09:00,
2013-01-10 10:10:00,41.1,22.4,30.26,NW,315,6.0,24.0,47,0.00,,OVC021,0.00,369.00,VWS V14.01,2013-01-10 15:10:00,
2013-01-10 10:14:00,41.3,22.6,30.27,NW,317,15.0,20.0,47,0.00,,OVC021,0.00,378.00,VWS V14.01,2013-01-10 15:14:00,
2013-01-10 10:15:00,41.3,22.6,30.27,NW,313,9.0,20.0,47,0.00,,OVC021,0.00,376.00,VWS V14.01,2013-01-10 15:15:00,
2013-01-10 10:19:00,41.3,22.6,30.27,NW,310,11.0,22.0,47,0.00,,OVC021,0.00,383.00,VWS V14.01,2013-01-10 15:19:00,
2013-01-10 10:20:00,41.2,22.5,30.27,WNW,302,9.0,20.0,47,0.00,,OVC021,0.00,383.00,VWS V14.01,2013-01-10 15:20:00,
2013-01-10 10:24:00,41.6,22.4,30.27,NNW,332,15.0,16.0,46,0.00,,OVC021,0.00,390.00,VWS V14.01,2013-01-10 15:24:00,
2013-01-10 10:25:00,41.5,22.8,30.27,NW,315,12.0,22.0,47,0.00,,OVC021,0.00,390.00,VWS V14.01,2013-01-10 15:25:00,
2013-01-10 10:30:00,41.5,22.3,30.27,NW,317,17.0,19.0,46,0.00,,OVC021,0.00,397.00,VWS V14.01,2013-01-10 15:30:00,
2013-01-10 10:35:00,41.5,22.3,30.27,NW,317,16.0,22.0,46,0.00,,OVC021,0.00,403.00,VWS V14.01,2013-01-10 15:35:00,
2013-01-10 10:40:00,41.8,22.5,30.26,NW,314,14.0,19.0,46,0.00,,OVC021,0.00,408.00,VWS V14.01,2013-01-10 15:40:00,
2013-01-10 10:45:00,42.2,23.4,30.26,NW,308,17.0,17.0,47,0.00,,OVC021,0.00,411.00,VWS V14.01,2013-01-10 15:45:00,
2013-01-10 10:50:00,42.2,22.9,30.26,NNW,327,11.0,20.0,46,0.00,,OVC021,0.00,417.00,VWS V14.01,2013-01-10 15:50:00,
2013-01-10 10:55:00,42.3,23.0,30.26,North,355,7.0,14.0,46,0.00,,OVC021,0.00,420.00,VWS V14.01,2013-01-10 15:55:00,
2013-01-10 11:00:00,42.3,22.5,30.25,NNE,20,11.0,21.0,45,0.00,,OVC021,0.00,424.00,VWS V14.01,2013-01-10 16:00:00,
2013-01-10 11:05:00,42.3,23.0,30.25,NW,306,10.0,17.0,46,0.00,,OVC021,0.00,427.00,VWS V14.01,2013-01-10 16:05:00,
2013-01-10 11:10:00,42.4,23.1,30.26,NW,309,15.0,18.0,46,0.00,,OVC021,0.00,429.00,VWS V14.01,2013-01-10 16:10:00,
2013-01-10 11:15:00,42.5,23.2,30.26,WNW,298,10.0,13.0,46,0.00,,OVC021,0.00,431.00,VWS V14.01,2013-01-10 16:15:00,
2013-01-10 11:20:00,42.6,23.3,30.26,NW,325,10.0,14.0,46,0.00,,OVC021,0.00,432.00,VWS V14.01,2013-01-10 16:20:00,
2013-01-10 11:21:00,42.7,23.4,30.26,NNW,331,4.0,11.0,46,0.00,,OVC021,0.00,432.00,VWS V14.01,2013-01-10 16:21:00,
2013-01-10 11:25:00,42.8,23.0,30.26,NNW,336,11.0,20.0,45,0.00,,OVC021,0.00,434.00,VWS V14.01,2013-01-10 16:25:00,
2013-01-10 11:26:00,42.7,22.9,30.27,NW,306,15.0,20.0,45,0.00,,OVC021,0.00,434.00,VWS V14.01,2013-01-10 16:26:00,
2013-01-10 11:30:00,42.6,23.3,30.27,WNW,289,11.0,23.0,46,0.00,,OVC021,0.00,434.00,VWS V14.01,2013-01-10 16:30:00,
2013-01-10 11:31:00,42.6,23.3,30.26,North,355,16.0,22.0,46,0.00,,OVC021,0.00,436.00,VWS V14.01,2013-01-10 16:31:00,
2013-01-10 11:35:00,42.6,22.8,30.26,WNW,286,7.0,22.0,45,0.00,,OVC021,0.00,436.00,VWS V14.01,2013-01-10 16:35:00,
2013-01-10 11:36:00,42.6,22.8,30.26,NE,47,8.0,23.0,45,0.00,,OVC021,0.00,436.00,VWS V14.01,2013-01-10 16:36:00,
2013-01-10 11:40:00,42.8,23.5,30.25,NNW,332,9.0,23.0,46,0.00,,OVC021,0.00,436.00,VWS V14.01,2013-01-10 16:40:00,
2013-01-10 11:41:00,43.0,23.1,30.25,NW,312,6.0,17.0,45,0.00,,OVC021,0.00,434.00,VWS V14.01,2013-01-10 16:41:00,
2013-01-10 11:45:00,43.0,23.6,30.25,NNW,333,13.0,19.0,46,0.00,,OVC021,0.00,436.00,VWS V14.01,2013-01-10 16:45:00,
2013-01-10 11:46:00,43.1,23.2,30.25,WNW,302,5.0,15.0,45,0.00,,OVC021,0.00,436.00,VWS V14.01,2013-01-10 16:46:00,
2013-01-10 11:50:00,43.2,23.8,30.25,WNW,302,10.0,15.0,46,0.00,,OVC021,0.00,436.00,VWS V14.01,2013-01-10 16:50:00,
2013-01-10 11:51:00,43.4,23.5,30.25,WNW,283,8.0,14.0,45,0.00,,OVC021,0.00,436.00,VWS V14.01,2013-01-10 16:51:00,
2013-01-10 11:55:00,43.3,22.9,30.25,NW,312,11.0,20.0,44,0.00,,OVC021,0.00,436.00,VWS V14.01,2013-01-10 16:55:00,
2013-01-10 11:56:00,43.2,22.8,30.25,NNW,336,12.0,24.0,44,0.00,,OVC021,0.00,436.00,VWS V14.01,2013-01-10 16:56:00,
2013-01-10 12:00:00,43.1,23.2,30.25,NNW,338,13.0,24.0,45,0.00,,OVC021,0.00,434.00,VWS V14.01,2013-01-10 17:00:00,
2013-01-10 12:01:00,43.2,23.3,30.25,WNW,299,10.0,21.0,45,0.00,,OVC021,0.00,434.00,VWS V14.01,2013-01-10 17:01:00,
2013-01-10 12:05:00,43.3,23.4,30.25,NW,309,7.0,21.0,45,0.00,,OVC021,0.00,434.00,VWS V14.01,2013-01-10 17:05:00,
2013-01-10 12:06:00,43.4,23.5,30.25,NW,317,7.0,12.0,45,0.00,,OVC021,0.00,432.00,VWS V14.01,2013-01-10 17:06:00,
2013-01-10 12:10:00,43.5,23.6,30.25,NNW,328,8.0,20.0,45,0.00,,OVC021,0.00,431.00,VWS V14.01,2013-01-10 17:10:00,
2013-01-10 12:11:00,43.7,23.2,30.25,North,9,15.0,25.0,44,0.00,,OVC021,0.00,431.00,VWS V14.01,2013-01-10 17:11:00,
2013-01-10 12:15:00,43.5,23.0,30.25,NNW,338,15.0,25.0,44,0.00,,OVC021,0.00,429.00,VWS V14.01,2013-01-10 17:15:00,
2013-01-10 12:16:00,43.3,23.4,30.25,NW,310,9.0,17.0,45,0.00,,OVC021,0.00,427.00,VWS V14.01,2013-01-10 17:16:00,
2013-01-10 12:20:00,43.4,23.0,30.25,NNW,335,15.0,17.0,44,0.00,,OVC021,0.00,427.00,VWS V14.01,2013-01-10 17:20:00,
2013-01-10 12:21:00,43.3,22.9,30.25,West,277,17.0,21.0,44,0.00,,OVC021,0.00,424.00,VWS V14.01,2013-01-10 17:21:00,
2013-01-10 12:25:00,43.4,23.5,30.25,West,281,14.0,21.0,45,0.00,,OVC021,0.00,424.00,VWS V14.01,2013-01-10 17:25:00,
2013-01-10 12:26:00,43.6,23.1,30.25,WNW,302,16.0,16.0,44,0.00,,OVC021,0.00,420.00,VWS V14.01,2013-01-10 17:26:00,
2013-01-10 12:30:00,43.6,23.7,30.25,NW,311,11.0,16.0,45,0.00,,OVC021,0.00,420.00,VWS V14.01,2013-01-10 17:30:00,
2013-01-10 12:32:00,43.6,23.1,30.25,NW,314,6.0,20.0,44,0.00,,OVC021,0.00,418.00,VWS V14.01,2013-01-10 17:32:00,
2013-01-10 12:35:00,43.7,23.2,30.26,NNW,341,6.0,20.0,44,0.00,,OVC021,0.00,413.00,VWS V14.01,2013-01-10 17:35:00,
2013-01-10 12:37:00,44.0,23.5,30.26,WNW,296,12.0,17.0,44,0.00,,OVC021,0.00,381.00,VWS V14.01,2013-01-10 17:37:00,
2013-01-10 12:40:00,44.0,23.0,30.26,WNW,301,12.0,17.0,43,0.00,,OVC021,0.00,355.00,VWS V14.01,2013-01-10 17:40:00,
2013-01-10 12:42:00,44.0,23.0,30.25,NW,315,8.0,20.0,43,0.00,,OVC021,0.00,269.00,VWS V14.01,2013-01-10 17:42:00,
2013-01-10 12:45:00,44.1,23.6,30.25,NW,324,11.0,20.0,44,0.00,,OVC021,0.00,244.00,VWS V14.01,2013-01-10 17:45:00,
2013-01-10 12:47:00,44.2,23.7,30.25,NNW,338,12.0,18.0,44,0.00,,OVC021,0.00,121.00,VWS V14.01,2013-01-10 17:47:00,
2013-01-10 12:50:00,44.1,23.6,30.25,NNW,334,18.0,18.0,44,0.00,,OVC021,0.00,100.00,VWS V14.01,2013-01-10 17:50:00,
2013-01-10 12:52:00,44.0,23.0,30.25,WNW,287,9.0,21.0,43,0.00,,OVC021,0.00,40.00,VWS V14.01,2013-01-10 17:52:00,
2013-01-10 12:55:00,43.9,22.9,30.26,NW,313,12.0,21.0,43,0.00,,OVC021,0.00,35.00,VWS V14.01,2013-01-10 17:55:00,
2013-01-10 12:57:00,43.9,23.4,30.27,NW,306,14.0,21.0,44,0.00,,OVC021,0.00,30.00,VWS V14.01,2013-01-10 17:57:00,
2013-01-10 13:00:00,44.0,23.5,30.27,NNW,341,6.0,21.0,44,0.00,,OVC021,0.00,30.00,VWS V14.01,2013-01-10 18:00:00,
2013-01-10 13:02:00,44.2,23.7,30.26,WNW,284,15.0,22.0,44,0.00,,OVC021,0.00,30.00,VWS V14.01,2013-01-10 18:02:00,
2013-01-10 13:05:00,44.2,23.7,30.26,West,267,15.0,22.0,44,0.00,,OVC021,0.00,30.00,VWS V14.01,2013-01-10 18:05:00,
2013-01-10 13:07:00,44.3,23.8,30.25,NNW,331,12.0,17.0,44,0.00,,OVC021,0.00,30.00,VWS V14.01,2013-01-10 18:07:00,
2013-01-10 13:10:00,44.3,23.8,30.25,West,276,10.0,19.0,44,0.00,,OVC021,0.00,30.00,VWS V14.01,2013-01-10 18:10:00,
2013-01-10 13:12:00,44.4,23.3,30.25,NNW,342,10.0,19.0,43,0.00,,OVC021,0.00,30.00,VWS V14.01,2013-01-10 18:12:00,
2013-01-10 13:15:00,44.4,23.9,30.25,NNW,344,8.0,19.0,44,0.00,,OVC021,0.00,28.00,VWS V14.01,2013-01-10 18:15:00,
2013-01-10 13:17:00,44.6,24.0,30.26,WNW,301,5.0,15.0,44,0.00,,OVC021,0.00,28.00,VWS V14.01,2013-01-10 18:17:00,
2013-01-10 13:20:00,44.7,24.1,30.26,NW,308,10.0,15.0,44,0.00,,OVC021,0.00,28.00,VWS V14.01,2013-01-10 18:20:00,
2013-01-10 13:22:00,44.7,23.6,30.26,NW,304,14.0,20.0,43,0.00,,OVC021,0.00,28.00,VWS V14.01,2013-01-10 18:22:00,
2013-01-10 13:25:00,44.7,23.6,30.26,NNW,338,8.0,20.0,43,0.00,,OVC021,0.00,28.00,VWS V14.01,2013-01-10 18:25:00,
2013-01-10 13:27:00,44.9,23.8,30.27,WNW,303,8.0,15.0,43,0.00,,OVC021,0.00,28.00,VWS V14.01,2013-01-10 18:27:00,
2013-01-10 13:30:00,44.9,23.8,30.27,NNW,341,4.0,15.0,43,0.00,,OVC021,0.00,28.00,VWS V14.01,2013-01-10 18:30:00,
2013-01-10 13:32:00,44.6,22.9,30.27,NW,321,13.0,21.0,42,0.00,,OVC021,0.00,28.00,VWS V14.01,2013-01-10 18:32:00,
2013-01-10 13:35:00,44.6,22.9,30.27,NW,307,8.0,21.0,42,0.00,,OVC021,0.00,28.00,VWS V14.01,2013-01-10 18:35:00,
2013-01-10 13:37:00,44.8,23.7,30.27,NW,325,3.0,17.0,43,0.00,,OVC021,0.00,28.00,VWS V14.01,2013-01-10 18:37:00,
2013-01-10 13:40:00,44.8,23.7,30.27,NW,316,7.0,17.0,43,0.00,,OVC021,0.00,28.00,VWS V14.01,2013-01-10 18:40:00,
2013-01-10 13:43:00,45.0,22.7,30.28,NNW,328,9.0,16.0,41,0.00,,OVC021,0.00,28.00,VWS V14.01,2013-01-10 18:43:00,
2013-01-10 13:45:00,45.0,23.3,30.28,WNW,290,7.0,16.0,42,0.00,,OVC021,0.00,28.00,VWS V14.01,2013-01-10 18:45:00,
2013-01-10 13:48:00,44.9,23.2,30.28,NW,324,11.0,16.0,42,0.00,,OVC021,0.00,28.00,VWS V14.01,2013-01-10 18:48:00,
2013-01-10 13:50:00,44.9,23.2,30.28,NW,321,7.0,16.0,42,0.00,,OVC021,0.00,28.00,VWS V14.01,2013-01-10 18:50:00,
2013-01-10 13:53:00,45.0,23.3,30.30,NW,324,11.0,15.0,42,0.00,,OVC021,0.00,28.00,VWS V14.01,2013-01-10 18:53:00,
2013-01-10 13:55:00,45.0,23.3,30.30,NNW,333,9.0,15.0,42,0.00,,OVC021,0.00,28.00,VWS V14.01,2013-01-10 18:55:00,
2013-01-10 13:58:00,45.2,23.5,30.30,WNW,288,8.0,12.0,42,0.00,,OVC021,0.00,28.00,VWS V14.01,2013-01-10 18:58:00,
2013-01-10 14:00:00,45.3,23.6,30.30,NW,322,8.0,12.0,42,0.00,,OVC021,0.00,28.00,VWS V14.01,2013-01-10 19:00:00,
2013-01-10 14:03:00,45.5,23.2,30.30,NW,304,15.0,18.0,41,0.00,,OVC021,0.00,26.00,VWS V14.01,2013-01-10 19:03:00,
2013-01-10 14:05:00,45.5,23.2,30.30,NW,313,15.0,18.0,41,0.00,,OVC021,0.00,26.00,VWS V14.01,2013-01-10 19:05:00,
2013-01-10 14:08:00,45.2,22.9,30.29,NNW,327,8.0,16.0,41,0.00,,OVC021,0.00,26.00,VWS V14.01,2013-01-10 19:08:00,
2013-01-10 14:10:00,45.2,22.9,30.29,NNW,342,9.0,16.0,41,0.00,,OVC021,0.00,26.00,VWS V14.01,2013-01-10 19:10:00,
2013-01-10 14:13:00,45.3,23.6,30.29,NW,325,8.0,14.0,42,0.00,,OVC021,0.00,26.00,VWS V14.01,2013-01-10 19:13:00,
2013-01-10 14:15:00,45.3,23.6,30.29,NW,325,8.0,14.0,42,0.00,,OVC021,0.00,26.00,VWS V14.01,2013-01-10 19:15:00,
2013-01-10 14:18:00,45.1,22.8,30.29,NNW,328,7.0,19.0,41,0.00,,OVC021,0.00,26.00,VWS V14.01,2013-01-10 19:18:00,
2013-01-10 14:20:00,45.1,22.8,30.29,NNW,328,7.0,19.0,41,0.00,,OVC021,0.00,26.00,VWS V14.01,2013-01-10 19:20:00,
2013-01-10 14:23:00,44.9,23.2,30.30,NNW,329,7.0,7.0,42,0.00,,OVC021,0.00,26.00,VWS V14.01,2013-01-10 19:23:00,
2013-01-10 14:25:00,45.0,23.3,30.30,NNW,333,4.0,15.0,42,0.00,,OVC021,0.00,26.00,VWS V14.01,2013-01-10 19:25:00,
2013-01-10 14:29:00,45.1,23.4,30.30,NNW,328,7.0,13.0,42,0.00,,OVC021,0.00,26.00,VWS V14.01,2013-01-10 19:29:00,
2013-01-10 14:30:00,45.1,23.4,30.30,NW,326,9.0,11.0,42,0.00,,OVC021,0.00,26.00,VWS V14.01,2013-01-10 19:30:00,
2013-01-10 14:34:00,45.0,22.7,30.30,NW,305,11.0,15.0,41,0.00,,OVC021,0.00,26.00,VWS V14.01,2013-01-10 19:34:00,
2013-01-10 14:35:00,45.0,22.7,30.30,NW,304,13.0,15.0,41,0.00,,OVC021,0.00,26.00,VWS V14.01,2013-01-10 19:35:00,
2013-01-10 14:39:00,45.0,23.3,30.30,NNW,331,9.0,14.0,42,0.00,,OVC021,0.00,33.00,VWS V14.01,2013-01-10 19:39:00,
2013-01-10 14:40:00,45.0,23.3,30.30,WNW,299,12.0,15.0,42,0.00,,OVC021,0.00,30.00,VWS V14.01,2013-01-10 19:40:00,
2013-01-10 14:44:00,44.7,23.0,30.31,NNW,327,8.0,16.0,42,0.00,,OVC021,0.00,63.00,VWS V14.01,2013-01-10 19:44:00,
2013-01-10 14:45:00,44.8,23.1,30.31,NNW,348,16.0,16.0,42,0.00,,OVC021,0.00,56.00,VWS V14.01,2013-01-10 19:45:00,
2013-01-10 14:49:00,44.7,23.0,30.31,NW,326,5.0,11.0,42,0.00,,OVC021,0.00,111.00,VWS V14.01,2013-01-10 19:49:00,
2013-01-10 14:50:00,44.7,23.0,30.31,NNW,330,11.0,16.0,42,0.00,,OVC021,0.00,102.00,VWS V14.01,2013-01-10 19:50:00,
2013-01-10 14:54:00,44.9,23.2,30.31,North,11,7.0,10.0,42,0.00,,OVC021,0.00,149.00,VWS V14.01,2013-01-10 19:54:00,
2013-01-10 14:55:00,44.8,23.1,30.31,NNW,327,9.0,11.0,42,0.00,,OVC021,0.00,144.00,VWS V14.01,2013-01-10 19:55:00,
2013-01-10 14:59:00,44.8,23.7,30.31,NW,311,2.0,4.0,43,0.00,,OVC021,0.00,163.00,VWS V14.01,2013-01-10 19:59:00,
2013-01-10 15:00:00,44.8,23.7,30.31,WNW,300,3.0,17.0,43,0.00,,OVC021,0.00,163.00,VWS V14.01,2013-01-10 20:00:00,
2013-01-10 15:04:00,44.7,23.6,30.33,North,360,8.0,8.0,43,0.00,,OVC021,0.00,156.00,VWS V14.01,2013-01-10 20:04:00,
2013-01-10 15:05:00,44.8,23.1,30.32,NW,323,7.0,11.0,42,0.00,,OVC021,0.00,162.00,VWS V14.01,2013-01-10 20:05:00,
2013-01-10 15:09:00,44.6,23.5,30.33,North,5,3.0,4.0,43,0.00,,OVC021,0.00,141.00,VWS V14.01,2013-01-10 20:09:00,
2013-01-10 15:10:00,44.6,22.9,30.33,NNW,338,3.0,11.0,42,0.00,,OVC021,0.00,148.00,VWS V14.01,2013-01-10 20:10:00,
2013-01-10 15:14:00,44.6,22.9,30.33,NW,314,11.0,15.0,42,0.00,,OVC021,0.00,127.00,VWS V14.01,2013-01-10 20:14:00,
2013-01-10 15:15:00,44.6,22.9,30.33,NW,308,7.0,11.0,42,0.00,,OVC021,0.00,128.00,VWS V14.01,2013-01-10 20:15:00,
2013-01-10 15:19:00,44.4,23.3,30.32,NW,304,5.0,6.0,43,0.00,,OVC021,0.00,97.00,VWS V14.01,2013-01-10 20:19:00,
2013-01-10 15:20:00,44.4,22.8,30.32,NW,306,5.0,15.0,42,0.00,,OVC021,0.00,100.00,VWS V14.01,2013-01-10 20:20:00,
2013-01-10 15:25:00,44.4,22.8,30.32,WNW,284,8.0,11.0,42,0.00,,OVC021,0.00,74.00,VWS V14.01,2013-01-10 20:25:00,
2013-01-10 15:30:00,44.1,22.5,30.33,NW,317,10.0,17.0,42,0.00,,OVC021,0.00,56.00,VWS V14.01,2013-01-10 20:30:00,
2013-01-10 15:35:00,43.9,22.9,30.33,NW,315,9.0,13.0,43,0.00,,OVC021,0.00,53.00,VWS V14.01,2013-01-10 20:35:00,
2013-01-10 15:40:00,43.8,22.8,30.33,NNW,327,7.0,9.0,43,0.00,,OVC021,0.00,47.00,VWS V14.01,2013-01-10 20:40:00,
2013-01-10 15:45:00,43.8,22.2,30.33,NNW,333,12.0,14.0,42,0.00,,OVC021,0.00,46.00,VWS V14.01,2013-01-10 20:45:00,
2013-01-10 15:46:00,43.7,22.1,30.33,NW,309,8.0,15.0,42,0.00,,OVC021,0.00,42.00,VWS V14.01,2013-01-10 20:46:00,
2013-01-10 15:50:00,43.6,23.1,30.33,NNW,327,10.0,15.0,44,0.00,,OVC021,0.00,37.00,VWS V14.01,2013-01-10 20:50:00,
2013-01-10 15:51:00,43.5,22.5,30.33,NNW,338,6.0,14.0,43,0.00,,OVC021,0.00,33.00,VWS V14.01,2013-01-10 20:51:00,
2013-01-10 15:55:00,43.5,22.5,30.33,NW,319,8.0,14.0,43,0.00,,OVC021,0.00,26.00,VWS V14.01,2013-01-10 20:55:00,
2013-01-10 15:56:00,43.3,22.9,30.33,NW,310,9.0,10.0,44,0.00,,OVC021,0.00,23.00,VWS V14.01,2013-01-10 20:56:00,
2013-01-10 16:00:00,43.2,22.8,30.33,NNW,342,8.0,10.0,44,0.00,,OVC021,0.00,19.00,VWS V14.01,2013-01-10 21:00:00,
2013-01-10 16:01:00,43.1,22.7,30.33,NW,315,6.0,10.0,44,0.00,,OVC021,0.00,18.00,VWS V14.01,2013-01-10 21:01:00,
2013-01-10 16:05:00,43.0,22.6,30.33,WNW,283,11.0,12.0,44,0.00,,OVC021,0.00,14.00,VWS V14.01,2013-01-10 21:05:00,
2013-01-10 16:06:00,42.8,22.4,30.33,NW,323,8.0,11.0,44,0.00,,OVC021,0.00,12.00,VWS V14.01,2013-01-10 21:06:00,
2013-01-10 16:10:00,42.6,22.8,30.33,NNW,331,7.0,13.0,45,0.00,,OVC021,0.00,11.00,VWS V14.01,2013-01-10 21:10:00,
2013-01-10 16:11:00,42.5,22.1,30.34,NNW,339,6.0,15.0,44,0.00,,OVC021,0.00,11.00,VWS V14.01,2013-01-10 21:11:00,
2013-01-10 16:15:00,42.4,22.6,30.34,NW,320,5.0,15.0,45,0.00,,OVC021,0.00,9.00,VWS V14.01,2013-01-10 21:15:00,
2013-01-10 16:16:00,42.4,22.6,30.35,NNW,338,7.0,12.0,45,0.00,,OVC021,0.00,9.00,VWS V14.01,2013-01-10 21:16:00,
2013-01-10 16:20:00,42.3,22.5,30.35,NW,317,4.0,12.0,45,0.00,,OVC021,0.00,9.00,VWS V14.01,2013-01-10 21:20:00,
2013-01-10 16:21:00,42.3,22.5,30.35,NW,321,7.0,9.0,45,0.00,,OVC021,0.00,7.00,VWS V14.01,2013-01-10 21:21:00,
2013-01-10 16:25:00,42.2,22.4,30.35,NW,316,6.0,10.0,45,0.00,,OVC021,0.00,5.00,VWS V14.01,2013-01-10 21:25:00,
2013-01-10 16:26:00,42.1,22.8,30.35,NNW,330,6.0,8.0,46,0.00,,OVC021,0.00,5.00,VWS V14.01,2013-01-10 21:26:00,
2013-01-10 16:30:00,42.0,22.2,30.35,NW,318,11.0,11.0,45,0.00,,OVC021,0.00,0.00,VWS V14.01,2013-01-10 21:30:00,
2013-01-10 16:31:00,41.9,22.6,30.35,NW,304,7.0,16.0,46,0.00,,OVC021,0.00,0.00,VWS V14.01,2013-01-10 21:31:00,
2013-01-10 16:35:00,41.9,22.6,30.35,NW,318,6.0,16.0,46,0.00,,OVC021,0.00,0.00,VWS V14.01,2013-01-10 21:35:00,
2013-01-10 16:37:00,41.7,22.5,30.35,NW,320,5.0,12.0,46,0.00,,OVC021,0.00,0.00,VWS V14.01,2013-01-10 21:37:00,
2013-01-10 16:40:00,41.7,22.5,30.36,NW,318,5.0,12.0,46,0.00,,OVC021,0.00,0.00,VWS V14.01,2013-01-10 21:40:00,
2013-01-10 16:42:00,41.6,22.4,30.36,NW,321,6.0,11.0,46,0.00,,OVC021,0.00,0.00,VWS V14.01,2013-01-10 21:42:00,
2013-01-10 16:45:00,41.6,22.4,30.36,NW,314,6.0,11.0,46,0.00,,OVC021,0.00,0.00,VWS V14.01,2013-01-10 21:45:00,
2013-01-10 16:47:00,41.4,22.2,30.37,NNW,342,2.0,7.0,46,0.00,,OVC021,0.00,0.00,VWS V14.01,2013-01-10 21:47:00,
2013-01-10 16:50:00,41.4,22.2,30.37,NNW,337,7.0,8.0,46,0.00,,OVC021,0.00,0.00,VWS V14.01,2013-01-10 21:50:00,
2013-01-10 16:52:00,41.3,22.1,30.38,NNW,334,6.0,8.0,46,0.00,,OVC021,0.00,0.00,VWS V14.01,2013-01-10 21:52:00,
2013-01-10 16:55:00,41.3,22.1,30.38,NNW,340,2.0,8.0,46,0.00,,OVC021,0.00,0.00,VWS V14.01,2013-01-10 21:55:00,
2013-01-10 16:57:00,41.2,22.0,30.38,NW,306,3.0,9.0,46,0.00,,OVC021,0.00,0.00,VWS V14.01,2013-01-10 21:57:00,
2013-01-10 17:00:00,41.2,22.5,30.38,WNW,300,6.0,9.0,47,0.00,,OVC021,0.00,0.00,VWS V14.01,2013-01-10 22:00:00,
2013-01-10 17:02:00,41.0,22.3,30.37,NNW,338,3.0,8.0,47,0.00,,OVC021,0.00,0.00,VWS V14.01,2013-01-10 22:02:00,
2013-01-10 17:05:00,40.9,22.2,30.37,NW,326,4.0,8.0,47,0.00,,OVC021,0.00,0.00,VWS V14.01,2013-01-10 22:05:00,
2013-01-10 17:07:00,40.7,22.5,30.37,NW,315,4.0,12.0,48,0.00,,OVC021,0.00,0.00,VWS V14.01,2013-01-10 22:07:00,
2013-01-10 17:10:00,40.7,22.5,30.37,WNW,287,10.0,12.0,48,0.00,,OVC021,0.00,0.00,VWS V14.01,2013-01-10 22:10:00,
2013-01-10 17:13:00,40.7,22.5,30.37,WNW,300,5.0,11.0,48,0.00,,OVC021,0.00,0.00,VWS V14.01,2013-01-10 22:13:00,
2013-01-10 17:15:00,40.8,22.6,30.37,WNW,289,6.0,11.0,48,0.00,,OVC021,0.00,0.00,VWS V14.01,2013-01-10 22:15:00,
2013-01-10 17:18:00,40.6,22.5,30.38,NNW,338,3.0,6.0,48,0.00,,OVC021,0.00,0.00,VWS V14.01,2013-01-10 22:18:00,
2013-01-10 17:20:00,40.6,22.5,30.38,NNW,343,2.0,6.0,48,0.00,,OVC021,0.00,0.00,VWS V14.01,2013-01-10 22:20:00,
2013-01-10 17:23:00,40.5,22.4,30.39,ENE,64,3.0,4.0,48,0.00,,OVC021,0.00,0.00,VWS V14.01,2013-01-10 22:23:00,
2013-01-10 17:25:00,40.5,22.4,30.39,ENE,65,4.0,5.0,48,0.00,,OVC021,0.00,0.00,VWS V14.01,2013-01-10 22:25:00,
2013-01-10 17:28:00,40.4,22.8,30.39,ENE,67,2.0,4.0,49,0.00,,OVC021,0.00,0.00,VWS V14.01,2013-01-10 22:28:00,
2013-01-10 17:30:00,40.4,22.3,30.39,ENE,67,1.0,4.0,48,0.00,,OVC021,0.00,0.00,VWS V14.01,2013-01-10 22:30:00,
2013-01-10 17:33:00,40.2,22.6,30.39,NNW,340,3.0,5.0,49,0.00,,OVC021,0.00,0.00,VWS V14.01,2013-01-10 22:33:00,
2013-01-10 17:35:00,40.2,22.6,30.39,NNW,338,3.0,5.0,49,0.00,,OVC021,0.00,0.00,VWS V14.01,2013-01-10 22:35:00,
2013-01-10 17:38:00,40.1,22.5,30.38,NW,319,5.0,7.0,49,0.00,,OVC021,0.00,0.00,VWS V14.01,2013-01-10 22:38:00,
2013-01-10 17:40:00,40.1,22.5,30.38,NW,319,5.0,7.0,49,0.00,,OVC021,0.00,0.00,VWS V14.01,2013-01-10 22:40:00,
2013-01-10 17:43:00,39.8,22.7,30.38,NW,326,5.0,7.0,50,0.00,,OVC021,0.00,0.00,VWS V14.01,2013-01-10 22:43:00,
2013-01-10 17:45:00,39.8,22.7,30.38,NW,326,5.0,7.0,50,0.00,,OVC021,0.00,0.00,VWS V14.01,2013-01-10 22:45:00,
2013-01-10 17:48:00,39.5,22.4,30.38,North,10,4.0,4.0,50,0.00,,OVC021,0.00,0.00,VWS V14.01,2013-01-10 22:48:00,
2013-01-10 17:50:00,39.5,22.4,30.38,NNE,18,3.0,6.0,50,0.00,,OVC021,0.00,0.00,VWS V14.01,2013-01-10 22:50:00,
2013-01-10 17:53:00,39.3,22.7,30.38,NNE,19,1.0,5.0,51,0.00,,OVC021,0.00,0.00,VWS V14.01,2013-01-10 22:53:00,
2013-01-10 17:55:00,39.3,22.7,30.38,NNE,19,1.0,5.0,51,0.00,,OVC021,0.00,0.00,VWS V14.01,2013-01-10 22:55:00,
2013-01-10 17:58:00,38.9,22.8,30.39,NNE,19,1.0,2.0,52,0.00,,OVC021,0.00,0.00,VWS V14.01,2013-01-10 22:58:00,
2013-01-10 18:00:00,38.9,22.8,30.39,NNE,19,1.0,2.0,52,0.00,,OVC021,0.00,0.00,VWS V14.01,2013-01-10 23:00:00,
2013-01-10 18:03:00,38.7,22.6,30.39,NNE,19,1.0,2.0,52,0.00,,OVC021,0.00,0.00,VWS V14.01,2013-01-10 23:03:00,
2013-01-10 18:05:00,38.7,22.6,30.39,NNE,19,2.0,2.0,52,0.00,,OVC021,0.00,0.00,VWS V14.01,2013-01-10 23:05:00,
2013-01-10 18:08:00,38.6,22.5,30.39,NW,325,4.0,4.0,52,0.00,,OVC021,0.00,0.00,VWS V14.01,2013-01-10 23:08:00,
2013-01-10 18:10:00,38.6,22.5,30.39,NW,325,4.0,6.0,52,0.00,,OVC021,0.00,0.00,VWS V14.01,2013-01-10 23:10:00,
2013-01-10 18:13:00,38.6,23.0,30.39,NNW,327,1.0,3.0,53,0.00,,OVC021,0.00,0.00,VWS V14.01,2013-01-10 23:13:00,
2013-01-10 18:15:00,38.6,23.0,30.39,NNW,327,3.0,9.0,53,0.00,,OVC021,0.00,0.00,VWS V14.01,2013-01-10 23:15:00,
2013-01-10 18:19:00,38.5,22.9,30.39,NNW,347,2.0,3.0,53,0.00,,OVC021,0.00,0.00,VWS V14.01,2013-01-10 23:19:00,
2013-01-10 18:20:00,38.5,22.9,30.39,NNW,333,1.0,7.0,53,0.00,,OVC021,0.00,0.00,VWS V14.01,2013-01-10 23:20:00,
2013-01-10 18:24:00,38.3,22.7,30.39,North,355,2.0,4.0,53,0.00,,OVC021,0.00,0.00,VWS V14.01,2013-01-10 23:24:00,
2013-01-10 18:25:00,38.3,22.7,30.39,North,355,4.0,6.0,53,0.00,,OVC021,0.00,0.00,VWS V14.01,2013-01-10 23:25:00,
2013-01-10 18:29:00,38.2,22.6,30.39,NW,312,8.0,8.0,53,0.00,,OVC021,0.00,0.00,VWS V14.01,2013-01-10 23:29:00,
2013-01-10 18:30:00,38.2,22.6,30.39,WNW,298,4.0,5.0,53,0.00,,OVC021,0.00,0.00,VWS V14.01,2013-01-10 23:30:00,
2013-01-10 18:34:00,38.1,22.9,30.39,WNW,288,7.0,7.0,54,0.00,,OVC021,0.00,0.00,VWS V14.01,2013-01-10 23:34:00,
2013-01-10 18:35:00,38.2,23.0,30.39,NW,306,4.0,8.0,54,0.00,,OVC021,0.00,0.00,VWS V14.01,2013-01-10 23:35:00,
2013-01-10 18:39:00,38.1,22.9,30.40,NW,306,4.0,6.0,54,0.00,,OVC021,0.00,0.00,VWS V14.01,2013-01-10 23:39:00,
2013-01-10 18:40:00,38.1,22.9,30.39,NW,323,6.0,8.0,54,0.00,,OVC021,0.00,0.00,VWS V14.01,2013-01-10 23:40:00,
2013-01-10 18:45:00,37.9,22.8,30.40,NNW,330,2.0,7.0,54,0.00,,OVC021,0.00,0.00,VWS V14.01,2013-01-10 23:45:00,
2013-01-10 18:50:00,37.9,22.8,30.40,NW,311,4.0,5.0,54,0.00,,OVC021,0.00,0.00,VWS V14.01,2013-01-10 23:50:00,
2013-01-10 18:55:00,37.8,23.1,30.41,NNW,344,3.0,7.0,55,0.00,,OVC021,0.00,0.00,VWS V14.01,2013-01-10 23:55:00,
2013-01-10 19:00:00,37.8,23.1,30.40,NW,325,12.0,12.0,55,0.00,,OVC021,0.00,0.00,VWS V14.01,2013-01-11 00:00:00,
2013-01-10 19:05:00,37.8,23.1,30.40,NW,319,8.0,13.0,55,0.00,,OVC021,0.00,0.00,VWS V14.01,2013-01-11 00:05:00,
2013-01-10 19:10:00,38.1,22.9,30.40,NW,311,6.0,17.0,54,0.00,,OVC021,0.00,0.00,VWS V14.01,2013-01-11 00:10:00,
2013-01-10 19:15:00,38.0,22.9,30.40,NW,308,7.0,10.0,54,0.00,,OVC021,0.00,0.00,VWS V14.01,2013-01-11 00:15:00,
2013-01-10 19:20:00,37.9,23.2,30.40,North,11,9.0,16.0,55,0.00,,OVC021,0.00,0.00,VWS V14.01,2013-01-11 00:20:00,
2013-01-10 19:25:00,37.8,23.1,30.41,NNE,15,4.0,12.0,55,0.00,,OVC021,0.00,0.00,VWS V14.01,2013-01-11 00:25:00,
2013-01-10 19:30:00,37.7,23.0,30.41,WNW,296,11.0,15.0,55,0.00,,OVC021,0.00,0.00,VWS V14.01,2013-01-11 00:30:00,
2013-01-10 19:35:00,37.7,23.0,30.41,NW,315,7.0,13.0,55,0.00,,OVC021,0.00,0.00,VWS V14.01,2013-01-11 00:35:00,
2013-01-10 19:40:00,37.5,23.2,30.42,WNW,284,8.0,10.0,56,0.00,,OVC021,0.00,0.00,VWS V14.01,2013-01-11 00:40:00,
2013-01-10 19:45:00,37.4,23.1,30.41,NW,313,4.0,10.0,56,0.00,,OVC021,0.00,0.00,VWS V14.01,2013-01-11 00:45:00,
2013-01-10 19:50:00,37.2,23.0,30.42,NNW,346,3.0,13.0,56,0.00,,OVC021,0.00,0.00,VWS V14.01,2013-01-11 00:50:00,
2013-01-10 19:55:00,37.1,22.9,30.42,NNW,342,6.0,8.0,56,0.00,,OVC021,0.00,0.00,VWS V14.01,2013-01-11 00:55:00,
2013-01-10 20:00:00,37.0,23.2,30.42,NW,320,8.0,9.0,57,0.00,,OVC021,0.00,0.00,VWS V14.01,2013-01-11 01:00:00,
2013-01-10 20:05:00,36.9,23.1,30.42,NW,319,7.0,8.0,57,0.00,,OVC021,0.00,0.00,VWS V14.01,2013-01-11 01:05:00,
2013-01-10 20:10:00,36.8,23.0,30.42,NW,312,8.0,10.0,57,0.00,,OVC021,0.00,0.00,VWS V14.01,2013-01-11 01:10:00,
2013-01-10 20:15:00,36.6,22.8,30.42,NW,321,7.0,10.0,57,0.00,,OVC021,0.00,0.00,VWS V14.01,2013-01-11 01:15:00,
2013-01-10 20:20:00,36.4,23.0,30.41,NW,305,8.0,12.0,58,0.00,,OVC021,0.00,0.00,VWS V14.01,2013-01-11 01:20:00,
2013-01-10 20:25:00,36.1,22.8,30.41,WNW,298,3.0,9.0,58,0.00,,OVC021,0.00,0.00,VWS V14.01,2013-01-11 01:25:00,
2013-01-10 20:30:00,35.9,23.0,30.42,ENE,77,6.0,9.0,59,0.00,,OVC021,0.00,0.00,VWS V14.01,2013-01-11 01:30:00,
2013-01-10 20:35:00,35.9,23.0,30.43,East,92,0.0,8.0,59,0.00,,OVC021,0.00,0.00,VWS V14.01,2013-01-11 01:35:00,
2013-01-10 20:40:00,35.7,22.8,30.43,ENE,69,2.0,5.0,59,0.00,,OVC021,0.00,0.00,VWS V14.01,2013-01-11 01:40:00,
2013-01-10 20:45:00,35.9,23.0,30.44,North,11,0.0,5.0,59,0.00,,OVC021,0.00,0.00,VWS V14.01,2013-01-11 01:45:00,
2013-01-10 20:50:00,35.7,22.8,30.44,North,11,2.0,3.0,59,0.00,,OVC021,0.00,0.00,VWS V14.01,2013-01-11 01:50:00,
2013-01-10 20:55:00,35.4,22.5,30.44,NW,310,3.0,5.0,59,0.00,,OVC021,0.00,0.00,VWS V14.01,2013-01-11 01:55:00,
2013-01-10 21:00:00,35.2,22.7,30.44,NNW,329,4.0,8.0,60,0.00,,OVC021,0.00,0.00,VWS V14.01,2013-01-11 02:00:00,
2013-01-10 21:05:00,35.1,22.6,30.43,WNW,288,5.0,5.0,60,0.00,,OVC021,0.00,0.00,VWS V14.01,2013-01-11 02:05:00,
2013-01-10 21:10:00,34.9,22.4,30.44,NNW,348,1.0,5.0,60,0.00,,OVC021,0.00,0.00,VWS V14.01,2013-01-11 02:10:00,
2013-01-10 21:15:00,34.8,22.7,30.45,North,11,0.0,3.0,61,0.00,,OVC021,0.00,0.00,VWS V14.01,2013-01-11 02:15:00,
2013-01-10 21:20:00,34.6,22.5,30.46,NNE,12,0.0,1.0,61,0.00,,OVC021,0.00,0.00,VWS V14.01,2013-01-11 02:20:00,
2013-01-10 21:25:00,34.2,22.9,30.46,North,11,2.0,3.0,63,0.00,,OVC021,0.00,0.00,VWS V14.01,2013-01-11 02:25:00,
2013-01-10 21:30:00,33.5,22.6,30.46,North,11,0.0,2.0,64,0.00,,OVC021,0.00,0.00,VWS V14.01,2013-01-11 02:30:00,
2013-01-10 21:35:00,33.0,22.5,30.46,North,11,0.0,0.0,65,0.00,,OVC021,0.00,0.00,VWS V14.01,2013-01-11 02:35:00,
2013-01-10 21:40:00,32.8,22.3,30.47,North,11,0.0,0.0,65,0.00,,OVC021,0.00,0.00,VWS V14.01,2013-01-11 02:40:00,
2013-01-10 21:45:00,32.3,22.2,30.47,North,11,0.0,2.0,66,0.00,,OVC021,0.00,0.00,VWS V14.01,2013-01-11 02:45:00,
2013-01-10 21:50:00,31.8,22.1,30.47,North,11,3.0,3.0,67,0.00,,OVC021,0.00,0.00,VWS V14.01,2013-01-11 02:50:00,
2013-01-10 21:55:00,31.6,22.3,30.47,North,11,0.0,3.0,68,0.00,,OVC021,0.00,0.00,VWS V14.01,2013-01-11 02:55:00,
2013-01-10 22:00:00,31.7,22.4,30.47,NNW,346,3.0,4.0,68,0.00,,OVC021,0.00,0.00,VWS V14.01,2013-01-11 03:00:00,
2013-01-10 22:05:00,32.0,22.6,30.47,NW,317,4.0,4.0,68,0.00,,OVC021,0.00,0.00,VWS V14.01,2013-01-11 03:05:00,
2013-01-10 22:10:00,31.9,22.5,30.47,WNW,299,2.0,4.0,68,0.00,,OVC021,0.00,0.00,VWS V14.01,2013-01-11 03:10:00,
2013-01-10 22:15:00,31.7,22.4,30.48,WNW,299,2.0,3.0,68,0.00,,OVC021,0.00,0.00,VWS V14.01,2013-01-11 03:15:00,
2013-01-10 22:20:00,31.7,22.4,30.47,WNW,300,0.0,2.0,68,0.00,,OVC021,0.00,0.00,VWS V14.01,2013-01-11 03:20:00,
2013-01-10 22:25:00,31.8,22.5,30.47,WNW,299,0.0,3.0,68,0.00,,OVC021,0.00,0.00,VWS V14.01,2013-01-11 03:25:00,
2013-01-10 22:30:00,31.9,22.2,30.46,WNW,298,2.0,3.0,67,0.00,,OVC021,0.00,0.00,VWS V14.01,2013-01-11 03:30:00,
2013-01-10 22:35:00,32.0,22.3,30.47,WNW,299,1.0,4.0,67,0.00,,OVC021,0.00,0.00,VWS V14.01,2013-01-11 03:35:00,
2013-01-10 22:40:00,32.1,22.4,30.47,WNW,301,2.0,4.0,67,0.00,,OVC021,0.00,0.00,VWS V14.01,2013-01-11 03:40:00,
2013-01-10 22:45:00,32.3,22.6,30.47,NW,317,2.0,5.0,67,0.00,,OVC021,0.00,0.00,VWS V14.01,2013-01-11 03:45:00,
2013-01-10 22:50:00,32.4,22.7,30.48,NW,316,2.0,5.0,67,0.00,,OVC021,0.00,0.00,VWS V14.01,2013-01-11 03:50:00,
2013-01-10 22:55:00,32.3,22.6,30.47,NNW,344,0.0,3.0,67,0.00,,OVC021,0.00,0.00,VWS V14.01,2013-01-11 03:55:00,
2013-01-10 23:00:00,32.1,22.4,30.47,NNW,345,0.0,1.0,67,0.00,,OVC021,0.00,0.00,VWS V14.01,2013-01-11 04:00:00,
2013-01-10 23:05:00,31.9,22.5,30.47,NNW,345,1.0,2.0,68,0.00,,OVC021,0.00,0.00,VWS V14.01,2013-01-11 04:05:00,
2013-01-10 23:10:00,31.6,22.6,30.47,NNW,344,0.0,2.0,69,0.00,,OVC021,0.00,0.00,VWS V14.01,2013-01-11 04:10:00,
2013-01-10 23:15:00,31.2,22.2,30.47,NNW,344,0.0,0.0,69,0.00,,OVC021,0.00,0.00,VWS V14.01,2013-01-11 04:15:00,
2013-01-10 23:20:00,30.9,22.3,30.46,NNW,344,0.0,3.0,70,0.00,,OVC021,0.00,0.00,VWS V14.01,2013-01-11 04:20:00,
2013-01-10 23:25:00,30.6,22.3,30.47,NNW,344,0.0,0.0,71,0.00,,OVC021,0.00,0.00,VWS V14.01,2013-01-11 04:25:00,
2013-01-10 23:30:00,30.3,22.0,30.46,NNW,344,0.0,0.0,71,0.00,,OVC021,0.00,0.00,VWS V14.01,2013-01-11 04:30:00,
2013-01-10 23:35:00,30.0,22.1,30.46,NNW,345,1.0,1.0,72,0.00,,OVC021,0.00,0.00,VWS V14.01,2013-01-11 04:35:00,
2013-01-10 23:40:00,29.6,22.0,30.47,NNW,345,0.0,2.0,73,0.00,,OVC021,0.00,0.00,VWS V14.01,2013-01-11 04:40:00,
2013-01-10 23:45:00,29.4,21.8,30.45,NNW,345,2.0,3.0,73,0.00,,OVC021,0.00,0.00,VWS V14.01,2013-01-11 04:45:00,
2013-01-10 23:50:00,29.6,22.0,30.45,NNW,345,2.0,3.0,73,0.00,,OVC021,0.00,0.00,VWS V14.01,2013-01-11 04:50:00,
2013-01-10 23:55:00,30.0,22.4,30.46,NNW,345,0.0,3.0,73,0.00,,OVC021,0.00,0.00,VWS V14.01,2013-01-11 04:55:00,